Regional Weather Roundup
Issued by NWS

Home | Current Version | Previous Version | Text Only | Print | Product List | Glossary Off
Versions: 1 2 3 4 5 6 7 8 9 10 11 12 13 14 15 16 17 18 19 20 21 22 23 24 25 26 27 28 29 30 31 32 33 34 35 36 37 38 39 40 41 42 43 44 45 46 47 48 49 50

000
ASUS43 KMPX 181301
RWRMN
WEATHER ROUNDUP FOR MINNESOTA
NATIONAL WEATHER SERVICE TWIN CITIES/CHANHASSEN MN
800 AM CDT FRI APR 18 2014


NOTE: "FAIR" INDICATES FEW OR NO CLOUDS BELOW 12,000 FEET WITH NO
SIGNIFICANT WEATHER AND/OR OBSTRUCTIONS TO VISIBILITY. N/A MEANS
CURRENT SKY AND/OR WEATHER CONDITIONS ARE NOT AVAILABLE.

MNZ060>063-068>070-181400-
   Twin Cities Metro

CITY           SKY/WX    TMP DP  RH WIND       PRES   REMARKS
TWIN CITIES    CLOUDY    31  29  92 E5        30.37S WCI  26
ST PAUL        CLOUDY    31  29  92 CALM      30.39S
CRYSTAL        CLOUDY    27  25  92 CALM      30.36R FOG
BLAINE         CLOUDY    28  27  93 CALM      30.36R
EDEN PRAIRIE   CLOUDY    32  28  85 E5        30.34F FOG     WCI  27
LAKEVILLE      CLOUDY    28  28 100 E3        30.36R FOG
SOUTH ST PAUL  CLOUDY    33  30  89 CALM      30.37S FOG
LAKE ELMO      CLOUDY    30  28  93 CALM      30.38S
$$
MNZ001>005-007-008-013>017-022>024-027-028-181400-
   Northwest Minnesota

CITY           SKY/WX    TMP DP  RH WIND       PRES   REMARKS
BEMIDJI        MOSUNNY   27  22  81 E3        30.32R
HALLOCK        CLOUDY    32  12  43 E10       30.29F WCI  24
ROSEAU         MOSUNNY   28  18  64 SE5       30.33R WCI  23
WARROAD        SUNNY     23  18  80 NE3       30.34S
THIEF RVR FALL SUNNY     28  18  64 E9        30.31F WCI  20
CROOKSTON      SUNNY     34  19  55 E6        30.29F WCI  29
FOSSTON        SUNNY     30  19  64 E8        30.30S WCI  23
DETROIT LAKES  MOSUNNY   32  23  69 CALM      30.29S
MOORHEAD       PTSUNNY   36  27  69 SE7       30.28F
PARK RAPIDS    CLOUDY    29  21  72 E7        30.30R WCI  22
$$
MNZ006-009>011-018-025>026-181400-
   North Central Minnesota

CITY           SKY/WX    TMP DP  RH WIND       PRES   REMARKS
BAUDETTE       SUNNY     24  17  74 CALM      30.35R
FLAG ISLAND    SUNNY     18  14  86 CALM      30.34S
INTL FALLS     SUNNY     23  19  85 SE3       30.36R
WASKISH        SUNNY     27  25  93 E3        30.34S
BIG FORK       SUNNY     27  21  80 CALM      30.36R
LONGVILLE      PTSUNNY   30  23  74 CALM      30.33S
GRAND RAPIDS   SUNNY     28  19  69 E5        30.35R WCI  23
CRANE LAKE     SUNNY     12  10  92 CALM      30.41R
ORR            SUNNY     18  16  93 CALM      30.34R
COOK           SUNNY     19  18  93 CALM      30.37R
$$
MNZ012-019>021-037-181400-
   Northeast Minnesota

CITY           SKY/WX    TMP DP  RH WIND       PRES   REMARKS
DULUTH         MOSUNNY   28  19  69 N3        30.35R
ELY            FOG       18  16  93 CALM      30.37R VSB<1/4
HIBBING        SUNNY     27  21  78 CALM      30.35R
EVELETH        SUNNY     23  23 100 CALM      30.37R
DULUTH HARBOR  CLOUDY    25  21  86 CALM      30.41R
TWO HARBORS    SUNNY     28  19  69 CALM      30.35R
SILVER BAY     SUNNY     25  21  86 CALM      30.36R
GRAND MARAIS     N/A     31  24  75 VRB5      30.38R WCI  26
G MARAIS ARPRT PTSUNNY   25  18  74 NW12      30.32R WCI  14
$$
MNZ029>031-032-039>041-046>048-054>057-064-181400-
   West Central Minnesota

CITY           SKY/WX    TMP DP  RH WIND       PRES   REMARKS
FERGUS FALLS   PTSUNNY   36  21  55 SE5       30.27S
WHEATON        PTSUNNY   34  30  86 E9        30.30S WCI  26
MORRIS         MOSUNNY   32  25  74 SE8       30.28F WCI  25
ALEXANDRIA     CLOUDY    32  23  69 SE7       30.30R WCI  26
ELBOW LAKE     CLOUDY    33  26  77 SE7       30.29R WCI  26
WADENA         CLOUDY    28  21  74 E5        30.30R WCI  23
GLENWOOD       PTSUNNY   30  25  80 E3        30.32R
APPLETON       MOSUNNY   34  27  75 SE8       30.29S WCI  27
BENSON         PTSUNNY   32  25  74 SE6       30.31R WCI  26
ORTONVILLE     PTSUNNY   30  25  80 SE10      30.27R WCI  21
MADISON        PTSUNNY   36  30  80 E10       30.28R
WILLMAR        FAIR      30  25  80 E8        30.33S WCI  23
$$
MNZ033>034-036-042>043-049>051-058-059-181400-
   Central Minnesota

CITY           SKY/WX    TMP DP  RH WIND       PRES   REMARKS
ST CLOUD       CLOUDY    29  23  78 CALM      30.35R
SAUK CENTRE    CLOUDY    29  25  82 CALM      30.33R
PAYNESVILLE    CLOUDY    29  24  80 CALM      30.33S
AITKIN         MOSUNNY   36  25  64 SE7       30.33R
PINE RIVER     PTSUNNY   30  25  80 E7        30.35R WCI  23
BRAINERD       CLOUDY    34  22  61 E5        30.33R WCI  30
STAPLES        CLOUDY    28  21  74 CALM      30.31R
LONG PRAIRIE   PTSUNNY   30  23  74 CALM      30.32R
LITTLE FALLS   PTSUNNY   30  23  74 S5        30.33R WCI  25
LITCHFIELD     CLOUDY    28  27  93 SE3       30.34R
BUFFALO        CLOUDY    27  24  89 CALM      30.36S FOG
MAPLE LAKE     CLOUDY    28  27  99 CALM      30.36R FOG
$$
MNZ037-044-045-052-053-181400-
   East Central Minnesota

CITY           SKY/WX    TMP DP  RH WIND       PRES   REMARKS
PRINCETON      CLOUDY    28  25  86 CALM      30.36R
MORA           CLOUDY    27  23  86 CALM      30.37S
CAMBRIDGE      CLOUDY    30  21  69 CALM      30.35R
RUSH CITY      CLOUDY    25  23  93 CALM      30.37R
MOOSE LAKE     PTSUNNY   25  21  86 CALM      30.36R
HINCKLEY       FAIR      27  23  86 CALM      30.37R
CLOQUET        CLOUDY    21  16  79 CALM      30.36R
MCGREGOR       MOSUNNY   32  25  74 E5        30.36R WCI  27
$$
MNZ071>073-080-081-089-090-097-098-181400-
   Southwest Minnesota

CITY           SKY/WX    TMP DP  RH WIND       PRES   REMARKS
MONTEVIDEO     PTSUNNY   32  27  80 SE9       30.31R WCI  24
GRANITE FALLS  CLOUDY    31  26  80 E6        30.31F WCI  26
CANBY          CLOUDY    32  29  90 E8        30.27S WCI  25
MARSHALL       MOSUNNY   34  27  75 SE10      30.27R WCI  26
REDWOOD FALLS  CLOUDY    32  27  81 E9        30.30F WCI  24
OLIVIA         CLOUDY    30  27  86 E7        30.31S WCI  23
PIPESTONE      MOSUNNY   34  30  86 SE14G20   30.22S WCI  24
WINDOM         PTSUNNY   34  30  86 SE8       30.29S WCI  27
WORTHINGTON    MOSUNNY   34  27  75 SE14      30.28F WCI  24
JACKSON        SUNNY     32  30  93 SE8       30.30S FOG     WCI  25
TRACY          SUNNY     35  32  88 SE9       30.27S WCI  28
SLAYTON        SUNNY     32  31  99 SE14      30.26F FOG     WCI  22
$$
MNZ065>067-074>077-082>085-091>093-181400-
   South Central Minnesota

CITY           SKY/WX    TMP DP  RH WIND       PRES   REMARKS
MANKATO        CLOUDY    34  28  80 E6        30.34S WCI  29
NEW ULM        CLOUDY    32  30  93 SE5       30.33S WCI  27
ST JAMES       PTSUNNY   34  30  86 SE6       30.33S FOG     WCI  29
FAIRMONT       PTSUNNY   32  28  86 SE8       30.34S WCI  25
GLENCOE        CLOUDY    32  28  86 E3        30.34S
FARIBAULT      CLOUDY    34  28  80 CALM      30.36R HAZE
OWATONNA       MOSUNNY   34  30  86 E3        30.35R FOG
WASECA         PTSUNNY   34  32  93 E5        30.36S FOG     WCI  30
ALBERT LEA     PTSUNNY   34  30  86 SE3       30.34S FOG
$$
MNZ078>079-086>088-094>096-181400-
   Southeast Minnesota

CITY           SKY/WX    TMP DP  RH WIND       PRES   REMARKS
ROCHESTER      CLOUDY    32  28  85 CALM      30.36R FOG
RED WING       CLOUDY    30  28  93 CALM      30.38S FOG
STANTON        CLOUDY    32  30  93 E5        30.35R FOG     WCI  27
DODGE CENTER   PTSUNNY   34  34 100 CALM      30.36R FOG
WINONA         MOSUNNY   32  32 100 CALM        N/A  FOG
AUSTIN         MOSUNNY   32  30  93 CALM      30.35R FOG
PRESTON        CLOUDY    32  29  90 CALM      30.36R FOG
$$
ABBREVIATIONS USED IN REMARKS
   TC - TEMPERATURES IN CELSIUS
  WCI - WIND CHILL INDEX
   HX - HEAT INDEX
  VSB - VISIBILITY
$$


USA.gov is the U.S. government's official web portal to all federal, state and local government web resources and services.